Weather History for Savanna, IL

Change the Weather History Date:

Monday, January 21, 2013

  Actual Average (KCWI) Record (KCWI)
Temperature  
Mean Temperature 8 °F -  
Max Temperature 14 °F 31 °F 60 °F (1957)
Min Temperature 2 °F 15 °F -26 °F (1970)
Degree Days  
Heating Degree Days 57    
Moisture  
Dew Point -4 °F    
Average Humidity 59    
Maximum Humidity 77    
Minimum Humidity 47    
Precipitation  
Precipitation 0.00 in - - ()
Sea Level Pressure  
Sea Level Pressure 30.26 in    
Wind  
Wind Speed 13 mph (WNW)    
Max Wind Speed 22 mph    
Max Gust Speed 29 mph    
Visibility 10 miles    
Events Snow    
Averages and records for this station are not official NWS values.
T = Trace of Precipitation, MM = Missing Value Source: NWS Daily Summary

Daily Weather History Graph

Daily Weather History Graph

Search for Another Location

Airport:

Trip Planner

Search our weather history database for the weather conditions in past years. The results will help you decide how hot, cold, wet, or windy it might be!

Date:

Astronomy

Jan. 21, 2013 Rise Set
Actual Time 7:22 AM CST 5:01 PM CST
Civil Twilight 6:52 AM CST 5:32 PM CST
Nautical Twilight 6:18 AM CST 6:06 PM CST
Astronomical Twilight 5:44 AM CST 6:39 PM CST
Moon 12:41 PM CST (1/21) 2:51 AM CST (1/21)
Length of Visible Light 10h 39m
Length of Day
9h 39m
Waxing Gibbous, 75% of the Moon is Illuminated
Jan 21
Waxing Gibbous
Jan 26
Full
Feb 3
Last Quarter
Feb 10
New
Feb 17
First Quarter

Hourly Weather History & Observations

Time (CST) Temp. Windchill Dew Point Humidity Pressure Visibility Wind Dir Wind Speed Gust Speed Precip Events Conditions
12:15 AM 13.5 °F -2.1 °F 6.4 °F 74% 30.23 in 7.0 mi WNW 15.0 mph 18.4 mph N/A Snow Light Snow
12:35 AM 13.5 °F 1.3 °F 5.5 °F 71% 30.23 in 10.0 mi West 9.2 mph 17.3 mph N/A   Overcast
12:55 AM 13.6 °F 1.6 °F 5.0 °F 68% 30.22 in 10.0 mi West 9.2 mph 16.1 mph N/A   Overcast
1:15 AM 13.8 °F -0.5 °F 5.0 °F 68% 30.22 in 10.0 mi West 12.7 mph 19.6 mph N/A   Overcast
1:35 AM 14.0 °F 2.9 °F 5.7 °F 70% 30.21 in 10.0 mi West 8.1 mph - N/A   Overcast
1:55 AM 14.0 °F -0.2 °F 5.9 °F 70% 30.21 in 10.0 mi West 12.7 mph 17.3 mph N/A   Overcast
2:15 AM 14.0 °F 0.5 °F 5.7 °F 70% 30.20 in 10.0 mi West 11.5 mph - N/A   Overcast
2:35 AM 13.8 °F 0.2 °F 7.9 °F 77% 30.20 in 5.0 mi West 11.5 mph 16.1 mph N/A Snow Light Snow
2:55 AM 12.7 °F -1.1 °F 6.4 °F 76% 30.21 in 5.0 mi WNW 11.5 mph 23.0 mph N/A Snow Light Snow
3:15 AM 11.7 °F -4.4 °F 2.7 °F 67% 30.21 in 10.0 mi WNW 15.0 mph 20.7 mph N/A   Scattered Clouds
3:35 AM 11.3 °F -2.9 °F 1.8 °F 66% 30.20 in 10.0 mi WNW 11.5 mph 19.6 mph N/A   Clear
3:55 AM 10.8 °F -4.3 °F 1.8 °F 67% 30.20 in 10.0 mi WNW 12.7 mph 19.6 mph N/A   Clear
4:15 AM 10.2 °F -5.7 °F 1.9 °F 69% 30.20 in 10.0 mi West 13.8 mph 21.9 mph N/A   Clear
4:35 AM 9.1 °F -6.4 °F -2.4 °F 60% 30.20 in 10.0 mi West 12.7 mph 26.5 mph N/A   Scattered Clouds
4:55 AM 7.7 °F -10.1 °F -2.2 °F 64% 30.21 in 10.0 mi WNW 16.1 mph 25.3 mph N/A   Clear
5:15 AM 7.0 °F -11.0 °F -3.6 °F 62% 30.21 in 10.0 mi WNW 16.1 mph 26.5 mph N/A   Clear
5:35 AM 6.6 °F -10.2 °F -5.6 °F 57% 30.21 in 10.0 mi WNW 13.8 mph 23.0 mph N/A   Clear
5:55 AM 6.3 °F -9.2 °F -6.0 °F 57% 30.21 in 10.0 mi WNW 11.5 mph 23.0 mph N/A   Clear
6:15 AM 5.7 °F -12.6 °F -5.8 °F 59% 30.22 in 10.0 mi WNW 16.1 mph 23.0 mph N/A   Clear
6:35 AM 5.0 °F -13.6 °F -5.6 °F 62% 30.23 in 10.0 mi WNW 16.1 mph 27.6 mph N/A   Clear
6:55 AM 4.5 °F -16.4 °F -5.4 °F 64% 30.23 in 10.0 mi West 20.7 mph 25.3 mph N/A   Clear
7:15 AM 3.4 °F -15.7 °F -6.7 °F 63% 30.24 in 10.0 mi West 16.1 mph 23.0 mph N/A   Clear
7:35 AM 3.0 °F -16.7 °F -6.9 °F 63% 30.24 in 10.0 mi WNW 17.3 mph 21.9 mph N/A   Clear
7:55 AM 2.8 °F -16.4 °F -7.6 °F 62% 30.25 in 10.0 mi WNW 16.1 mph 24.2 mph N/A   Clear
8:35 AM 2.7 °F -18.3 °F -9.8 °F 56% 30.27 in 10.0 mi WNW 19.6 mph 28.8 mph N/A   Clear
8:55 AM 2.8 °F -18.6 °F -10.3 °F 54% 30.28 in 10.0 mi WNW 20.7 mph 25.3 mph N/A   Clear
9:15 AM 2.8 °F -19.1 °F -10.7 °F 53% 30.28 in 10.0 mi WNW 21.9 mph 26.5 mph N/A   Clear
9:35 AM 3.7 °F -15.8 °F -10.3 °F 52% 30.29 in 10.0 mi WNW 17.3 mph 24.2 mph N/A   Clear
9:55 AM 4.1 °F -14.1 °F -10.3 °F 51% 30.30 in 10.0 mi WNW 15.0 mph - N/A   Clear
10:15 AM 4.5 °F -14.9 °F -10.1 °F 51% 30.30 in 10.0 mi WNW 17.3 mph 24.2 mph N/A   Clear
10:35 AM 4.5 °F -13.7 °F -8.7 °F 55% 30.30 in 10.0 mi WNW 15.0 mph 20.7 mph N/A   Clear
10:55 AM 5.2 °F -13.3 °F -8.9 °F 52% 30.30 in 10.0 mi WNW 16.1 mph 20.7 mph N/A   Clear
11:15 AM 6.1 °F -10.9 °F -8.1 °F 52% 30.30 in 10.0 mi West 13.8 mph 19.6 mph N/A   Clear
11:35 AM 6.4 °F -10.5 °F -8.9 °F 50% 30.29 in 10.0 mi West 13.8 mph 21.9 mph N/A   Clear
11:55 AM 6.8 °F -10.7 °F -8.7 °F 49% 30.28 in 10.0 mi West 15.0 mph 18.4 mph N/A   Clear
12:15 PM 7.2 °F -9.6 °F -9.0 °F 48% 30.28 in 10.0 mi West 13.8 mph 19.6 mph N/A   Clear
12:35 PM 7.2 °F -10.2 °F -9.4 °F 47% 30.27 in 10.0 mi West 15.0 mph 28.8 mph N/A   Clear
12:55 PM 7.9 °F -9.3 °F -8.5 °F 47% 30.27 in 10.0 mi WNW 15.0 mph 23.0 mph N/A   Clear
1:15 PM 8.2 °F -8.8 °F -8.3 °F 47% 30.26 in 10.0 mi WNW 15.0 mph 24.2 mph N/A   Clear
1:35 PM 8.8 °F -9.8 °F -7.6 °F 47% 30.26 in 10.0 mi WNW 18.4 mph 25.3 mph N/A   Clear
1:55 PM 8.6 °F -7.7 °F -7.6 °F 48% 30.26 in 10.0 mi West 13.8 mph 24.2 mph N/A   Clear
2:15 PM 8.8 °F -6.8 °F -7.4 °F 48% 30.26 in 10.0 mi West 12.7 mph 26.5 mph N/A   Clear
2:35 PM 9.5 °F -6.6 °F -6.3 °F 49% 30.26 in 10.0 mi West 13.8 mph 20.7 mph N/A   Clear
2:55 PM 9.3 °F -6.8 °F -6.3 °F 49% 30.26 in 10.0 mi West 13.8 mph 19.6 mph N/A   Clear
3:15 PM 9.1 °F -8.8 °F -6.3 °F 50% 30.26 in 10.0 mi West 17.3 mph 23.0 mph N/A   Clear
3:35 PM 9.0 °F -8.5 °F -6.0 °F 51% 30.27 in 10.0 mi West 16.1 mph 23.0 mph N/A   Clear
3:55 PM 8.4 °F -8.6 °F -6.2 °F 52% 30.27 in 10.0 mi West 15.0 mph 21.9 mph N/A   Clear
4:15 PM 8.4 °F -5.7 °F -6.0 °F 52% 30.27 in 10.0 mi West 10.4 mph 17.3 mph N/A   Clear
4:35 PM 7.7 °F -9.5 °F -6.2 °F 53% 30.27 in 10.0 mi West 15.0 mph 21.9 mph N/A   Clear
4:55 PM 7.3 °F -9.3 °F -6.5 °F 53% 30.27 in 10.0 mi West 13.8 mph 19.6 mph N/A   Clear
5:15 PM 6.8 °F -6.9 °F -6.5 °F 55% 30.27 in 10.0 mi West 9.2 mph 18.4 mph N/A   Clear
5:35 PM 6.8 °F -7.8 °F -6.7 °F 54% 30.27 in 10.0 mi West 10.4 mph 18.4 mph N/A   Clear
5:55 PM 6.6 °F -7.1 °F -5.8 °F 57% 30.28 in 10.0 mi West 9.2 mph 17.3 mph N/A   Clear
6:15 PM 6.6 °F -6.1 °F -5.6 °F 57% 30.28 in 10.0 mi West 8.1 mph - N/A   Clear
6:55 PM 6.4 °F -7.3 °F -4.9 °F 60% 30.28 in 10.0 mi WNW 9.2 mph - N/A   Clear
7:15 PM 6.4 °F -6.3 °F -4.5 °F 61% 30.28 in 10.0 mi West 8.1 mph - N/A   Clear
7:35 PM 6.3 °F -6.5 °F -4.4 °F 62% 30.29 in 10.0 mi West 8.1 mph - N/A   Clear
7:55 PM 6.4 °F -6.3 °F -4.2 °F 62% 30.29 in 10.0 mi West 8.1 mph - N/A   Clear
8:15 PM 6.4 °F -6.3 °F -4.2 °F 62% 30.29 in 10.0 mi West 8.1 mph - N/A   Clear
8:35 PM 6.4 °F -8.2 °F -4.2 °F 62% 30.29 in 10.0 mi West 10.4 mph 18.4 mph N/A   Clear
8:55 PM 6.4 °F -8.2 °F -4.4 °F 61% 30.29 in 10.0 mi West 10.4 mph 16.1 mph N/A   Clear
9:15 PM 6.4 °F -9.8 °F -4.4 °F 61% 30.30 in 10.0 mi WNW 12.7 mph 17.3 mph N/A   Clear
9:35 PM 6.4 °F -7.3 °F -4.0 °F 62% 30.30 in 10.0 mi West 9.2 mph - N/A   Clear
9:55 PM 6.3 °F -8.4 °F -4.2 °F 62% 30.30 in 10.0 mi West 10.4 mph - N/A   Clear
10:15 PM 5.9 °F -9.7 °F -4.4 °F 63% 30.30 in 10.0 mi West 11.5 mph 20.7 mph N/A   Clear
10:35 PM 5.7 °F -11.4 °F -4.9 °F 62% 30.31 in 10.0 mi WNW 13.8 mph 18.4 mph N/A   Clear
10:55 PM 5.4 °F -11.1 °F -5.4 °F 61% 30.32 in 10.0 mi WNW 12.7 mph 19.6 mph N/A   Clear
11:35 PM 4.8 °F -9.3 °F -6.2 °F 61% 30.32 in 10.0 mi WNW 9.2 mph 19.6 mph N/A   Clear
11:55 PM 4.5 °F -13.0 °F -6.5 °F 60% 30.31 in 10.0 mi WNW 13.8 mph 19.6 mph N/A   Clear